Time,TemperatureF,DewpointF,PressureIn,WindDirection,WindDirectionDegrees,WindSpeedMPH,WindSpeedGustMPH,Humidity,HourlyPrecipIn,Conditions,Clouds,dailyrainin,SolarRadiationWatts/m^2,SoftwareType,DateUTC
2013-08-16 00:14:00,56.9,53.0,29.76,ENE,76,0.0,6.0,85,0.00,,,0.00,0,weatherlink.com 1.10,2013-08-16 08:14:00,
2013-08-16 00:29:00,56.4,52.0,29.76,ENE,76,2.0,5.0,85,0.00,,,0.00,0,weatherlink.com 1.10,2013-08-16 08:29:00,
2013-08-16 00:44:00,56.0,52.0,29.76,ENE,76,2.0,3.0,85,0.00,,,0.00,0,weatherlink.com 1.10,2013-08-16 08:44:00,
2013-08-16 00:59:00,55.4,51.0,29.76,ENE,76,2.0,3.0,85,0.00,,,0.00,0,weatherlink.com 1.10,2013-08-16 08:59:00,
2013-08-16 01:14:00,55.1,51.0,29.76,ENE,76,0.0,4.0,86,0.00,,,0.00,0,weatherlink.com 1.10,2013-08-16 09:14:00,
2013-08-16 01:29:00,55.1,52.0,29.76,ENE,76,0.0,3.0,88,0.00,,,0.00,0,weatherlink.com 1.10,2013-08-16 09:29:00,
2013-08-16 01:44:00,55.3,52.0,29.76,ENE,76,1.0,2.0,87,0.00,,,0.00,0,weatherlink.com 1.10,2013-08-16 09:44:00,
2013-08-16 01:59:00,55.0,51.0,29.76,ENE,76,0.0,0.0,86,0.00,,,0.00,0,weatherlink.com 1.10,2013-08-16 09:59:00,
2013-08-16 02:14:00,55.7,53.0,29.75,ENE,76,0.0,4.0,89,0.00,,,0.00,0,weatherlink.com 1.10,2013-08-16 10:14:00,
2013-08-16 02:29:00,55.0,51.0,29.75,NNE,19,5.0,5.0,87,0.00,,,0.00,0,weatherlink.com 1.10,2013-08-16 10:29:00,
2013-08-16 02:44:00,53.5,50.0,29.75,NNE,19,2.0,5.0,87,0.00,,,0.00,0,weatherlink.com 1.10,2013-08-16 10:44:00,
2013-08-16 02:59:00,53.1,49.0,29.75,NNE,19,2.0,3.0,87,0.00,,,0.00,0,weatherlink.com 1.10,2013-08-16 10:59:00,
2013-08-16 03:14:00,52.9,49.0,29.76,NNE,24,0.0,2.0,87,0.00,,,0.00,0,weatherlink.com 1.10,2013-08-16 11:14:00,
2013-08-16 03:29:00,52.9,49.0,29.76,NNE,24,0.0,2.0,87,0.00,,,0.00,0,weatherlink.com 1.10,2013-08-16 11:29:00,
2013-08-16 03:44:00,52.8,49.0,29.75,NNE,24,0.0,1.0,88,0.00,,,0.00,0,weatherlink.com 1.10,2013-08-16 11:44:00,
2013-08-16 03:59:00,52.8,49.0,29.75,NNE,24,0.0,0.0,88,0.00,,,0.00,0,weatherlink.com 1.10,2013-08-16 11:59:00,
2013-08-16 04:14:00,53.2,50.0,29.75,NNE,24,0.0,2.0,88,0.00,,,0.00,0,weatherlink.com 1.10,2013-08-16 12:14:00,
2013-08-16 04:30:00,54.6,50.0,29.74,North,350,1.0,4.0,84,0.00,,,0.00,0,weatherlink.com 1.10,2013-08-16 12:30:00,
2013-08-16 04:45:00,53.5,50.0,29.74,North,349,2.0,5.0,86,0.00,,,0.00,0,weatherlink.com 1.10,2013-08-16 12:45:00,
2013-08-16 05:00:00,53.4,50.0,29.74,North,349,0.0,1.0,87,0.00,,,0.00,0,weatherlink.com 1.10,2013-08-16 13:00:00,
2013-08-16 05:15:00,54.6,52.0,29.74,North,349,1.0,4.0,91,0.00,,,0.00,0,weatherlink.com 1.10,2013-08-16 13:15:00,
2013-08-16 05:30:00,53.9,49.0,29.74,North,349,1.0,2.0,84,0.00,,,0.00,0,weatherlink.com 1.10,2013-08-16 13:30:00,
2013-08-16 05:45:00,52.8,49.0,29.74,North,349,0.0,4.0,86,0.00,,,0.00,0,weatherlink.com 1.10,2013-08-16 13:45:00,
2013-08-16 06:00:00,54.2,51.0,29.74,North,349,0.0,1.0,87,0.00,,,0.00,0,weatherlink.com 1.10,2013-08-16 14:00:00,
2013-08-16 06:15:00,54.0,51.0,29.74,North,349,0.0,0.0,88,0.00,,,0.00,5,weatherlink.com 1.10,2013-08-16 14:15:00,
2013-08-16 06:30:00,54.3,50.0,29.73,North,349,0.0,2.0,86,0.00,,,0.00,12,weatherlink.com 1.10,2013-08-16 14:30:00,
2013-08-16 06:45:00,54.1,50.0,29.73,North,349,1.0,2.0,85,0.00,,,0.00,23,weatherlink.com 1.10,2013-08-16 14:45:00,
2013-08-16 07:00:00,55.0,50.0,29.73,North,349,0.0,2.0,84,0.00,,,0.00,25,weatherlink.com 1.10,2013-08-16 15:00:00,
2013-08-16 07:15:00,53.3,49.0,29.73,North,351,0.0,2.0,86,0.00,,,0.00,33,weatherlink.com 1.10,2013-08-16 15:15:00,
2013-08-16 07:30:00,53.1,49.0,29.73,North,351,0.0,2.0,87,0.00,,,0.00,44,weatherlink.com 1.10,2013-08-16 15:30:00,
2013-08-16 07:45:00,52.9,49.0,29.73,North,351,0.0,1.0,87,0.00,,,0.00,51,weatherlink.com 1.10,2013-08-16 15:45:00,
2013-08-16 08:00:00,53.1,50.0,29.73,North,351,0.0,0.0,88,0.00,,,0.00,60,weatherlink.com 1.10,2013-08-16 16:00:00,
2013-08-16 08:15:00,54.1,50.0,29.73,North,351,1.0,2.0,87,0.00,,,0.00,67,weatherlink.com 1.10,2013-08-16 16:15:00,
2013-08-16 08:30:00,54.2,50.0,29.73,NNW,336,0.0,5.0,86,0.00,,,0.00,62,weatherlink.com 1.10,2013-08-16 16:30:00,
2013-08-16 08:45:00,54.5,50.0,29.73,NNW,336,1.0,4.0,84,0.00,,,0.00,90,weatherlink.com 1.10,2013-08-16 16:45:00,
2013-08-16 09:00:00,54.4,50.0,29.73,NNW,337,0.0,4.0,86,0.00,,,0.00,104,weatherlink.com 1.10,2013-08-16 17:00:00,
2013-08-16 09:15:00,54.6,51.0,29.73,West,268,2.0,5.0,87,0.00,,,0.00,113,weatherlink.com 1.10,2013-08-16 17:15:00,
2013-08-16 09:30:00,54.2,51.0,29.73,WSW,246,4.0,6.0,88,0.00,,,0.00,111,weatherlink.com 1.10,2013-08-16 17:30:00,
2013-08-16 09:45:00,54.4,51.0,29.73,WSW,239,4.0,5.0,88,0.00,,,0.00,116,weatherlink.com 1.10,2013-08-16 17:45:00,
2013-08-16 10:00:00,54.8,51.0,29.73,WSW,239,4.0,5.0,87,0.00,,,0.00,123,weatherlink.com 1.10,2013-08-16 18:00:00,
2013-08-16 10:15:00,54.9,51.0,29.73,West,260,2.0,6.0,86,0.00,,,0.00,98,weatherlink.com 1.10,2013-08-16 18:15:00,
2013-08-16 10:30:00,55.6,52.0,29.72,West,263,2.0,5.0,87,0.00,,,0.00,102,weatherlink.com 1.10,2013-08-16 18:30:00,
2013-08-16 10:45:00,56.4,52.0,29.72,WNW,301,1.0,6.0,86,0.00,,,0.00,116,weatherlink.com 1.10,2013-08-16 18:45:00,
2013-08-16 11:00:00,56.8,52.0,29.72,West,267,0.0,5.0,84,0.00,,,0.00,139,weatherlink.com 1.10,2013-08-16 19:00:00,
2013-08-16 11:15:00,56.6,52.0,29.72,WSW,254,5.0,6.0,84,0.00,,,0.00,141,weatherlink.com 1.10,2013-08-16 19:15:00,
2013-08-16 11:30:00,56.6,52.0,29.71,WSW,244,4.0,6.0,85,0.00,,,0.00,132,weatherlink.com 1.10,2013-08-16 19:30:00,
2013-08-16 11:45:00,56.7,53.0,29.71,West,267,5.0,7.0,86,0.00,,,0.00,169,weatherlink.com 1.10,2013-08-16 19:45:00,
2013-08-16 12:00:00,56.3,52.0,29.71,WSW,255,5.0,8.0,86,0.00,,,0.00,167,weatherlink.com 1.10,2013-08-16 20:00:00,
2013-08-16 12:15:00,56.8,53.0,29.71,West,277,5.0,7.0,86,0.00,,,0.00,100,weatherlink.com 1.10,2013-08-16 20:15:00,
2013-08-16 12:30:00,57.1,53.0,29.71,West,264,2.0,7.0,86,0.00,,,0.00,116,weatherlink.com 1.10,2013-08-16 20:30:00,
2013-08-16 12:45:00,57.5,53.0,29.71,West,265,2.0,6.0,85,0.00,,,0.00,132,weatherlink.com 1.10,2013-08-16 20:45:00,
2013-08-16 13:00:00,57.9,53.0,29.71,West,265,4.0,5.0,83,0.00,,,0.00,139,weatherlink.com 1.10,2013-08-16 21:00:00,
2013-08-16 13:15:00,58.6,53.0,29.71,NW,317,0.0,4.0,82,0.00,,,0.00,137,weatherlink.com 1.10,2013-08-16 21:15:00,
2013-08-16 13:30:00,58.7,53.0,29.71,WNW,284,0.0,5.0,82,0.00,,,0.00,104,weatherlink.com 1.10,2013-08-16 21:30:00,
2013-08-16 13:45:00,58.2,53.0,29.71,WNW,284,0.0,5.0,84,0.00,,,0.00,86,weatherlink.com 1.10,2013-08-16 21:45:00,
2013-08-16 14:00:00,59.1,55.0,29.71,WNW,284,2.0,3.0,85,0.01,,,0.01,107,weatherlink.com 1.10,2013-08-16 22:00:00,
2013-08-16 14:15:00,58.1,54.0,29.71,WSW,246,4.0,6.0,87,0.02,,,0.02,113,weatherlink.com 1.10,2013-08-16 22:15:00,
2013-08-16 14:30:00,57.8,53.0,29.71,WSW,250,2.0,5.0,85,0.02,,,0.02,93,weatherlink.com 1.10,2013-08-16 22:30:00,
2013-08-16 14:45:00,57.8,54.0,29.70,West,259,4.0,6.0,86,0.02,,,0.02,72,weatherlink.com 1.10,2013-08-16 22:45:00,
2013-08-16 15:00:00,57.6,54.0,29.70,West,259,4.0,6.0,88,0.01,,,0.02,72,weatherlink.com 1.10,2013-08-16 23:00:00,
2013-08-16 15:15:00,57.5,54.0,29.70,West,259,2.0,5.0,89,0.00,,,0.02,76,weatherlink.com 1.10,2013-08-16 23:15:00,
2013-08-16 15:30:00,57.3,55.0,29.70,West,259,1.0,5.0,90,0.01,,,0.03,65,weatherlink.com 1.10,2013-08-16 23:30:00,
2013-08-16 15:45:00,57.8,55.0,29.70,West,259,0.0,4.0,90,0.03,,,0.05,65,weatherlink.com 1.10,2013-08-16 23:45:00,
2013-08-16 16:00:00,58.0,55.0,29.69,West,260,0.0,5.0,91,0.04,,,0.06,60,weatherlink.com 1.10,2013-08-17 00:00:00,
2013-08-16 16:15:00,57.9,56.0,29.68,West,261,1.0,5.0,92,0.06,,,0.08,72,weatherlink.com 1.10,2013-08-17 00:15:00,
2013-08-16 16:30:00,57.9,56.0,29.68,West,261,0.0,4.0,92,0.05,,,0.08,74,weatherlink.com 1.10,2013-08-17 00:30:00,
2013-08-16 17:00:00,58.5,55.0,29.68,NNE,16,2.0,5.0,88,0.02,,,0.08,86,weatherlink.com 1.10,2013-08-17 01:00:00,
2013-08-16 17:15:00,58.2,54.0,29.68,NNE,13,1.0,5.0,87,0.00,,,0.08,79,weatherlink.com 1.10,2013-08-17 01:15:00,
2013-08-16 17:31:00,58.7,56.0,29.68,NNE,13,1.0,4.0,89,0.00,,,0.08,79,weatherlink.com 1.10,2013-08-17 01:31:00,
2013-08-16 17:46:00,58.8,55.0,29.67,North,9,0.0,5.0,86,0.00,,,0.08,76,weatherlink.com 1.10,2013-08-17 01:46:00,
2013-08-16 18:01:00,58.8,54.0,29.68,North,5,1.0,2.0,83,0.00,,,0.08,56,weatherlink.com 1.10,2013-08-17 02:01:00,
2013-08-16 18:17:00,58.9,54.0,29.67,North,5,0.0,1.0,84,0.00,,,0.08,49,weatherlink.com 1.10,2013-08-17 02:17:00,
2013-08-16 18:31:00,59.2,54.0,29.67,North,5,2.0,4.0,84,0.00,,,0.08,58,weatherlink.com 1.10,2013-08-17 02:31:00,
2013-08-16 18:46:00,59.2,55.0,29.67,North,360,3.0,4.0,86,0.00,,,0.08,60,weatherlink.com 1.10,2013-08-17 02:46:00,
2013-08-16 19:01:00,58.7,55.0,29.67,NNW,338,3.0,4.0,87,0.00,,,0.08,56,weatherlink.com 1.10,2013-08-17 03:01:00,
2013-08-16 19:16:00,58.7,56.0,29.67,WNW,292,0.0,6.0,89,0.00,,,0.08,39,weatherlink.com 1.10,2013-08-17 03:16:00,
2013-08-16 19:31:00,58.7,55.0,29.66,WNW,291,0.0,5.0,88,0.00,,,0.08,33,weatherlink.com 1.10,2013-08-17 03:31:00,
2013-08-16 19:46:00,58.8,56.0,29.66,WNW,291,0.0,4.0,89,0.00,,,0.08,28,weatherlink.com 1.10,2013-08-17 03:46:00,
2013-08-16 20:01:00,58.7,56.0,29.66,WNW,291,1.0,3.0,89,0.00,,,0.08,16,weatherlink.com 1.10,2013-08-17 04:01:00,
2013-08-16 20:16:00,58.4,55.0,29.66,WNW,291,0.0,2.0,89,0.00,,,0.08,12,weatherlink.com 1.10,2013-08-17 04:16:00,
2013-08-16 20:31:00,57.9,55.0,29.66,WNW,291,0.0,4.0,89,0.00,,,0.08,11,weatherlink.com 1.10,2013-08-17 04:31:00,
2013-08-16 20:46:00,57.8,55.0,29.66,WNW,291,3.0,5.0,89,0.00,,,0.08,11,weatherlink.com 1.10,2013-08-17 04:46:00,
2013-08-16 21:01:00,57.7,55.0,29.66,WNW,291,3.0,5.0,90,0.00,,,0.08,7,weatherlink.com 1.10,2013-08-17 05:01:00,
2013-08-16 21:16:00,57.5,55.0,29.66,West,270,6.0,7.0,92,0.00,,,0.08,0,weatherlink.com 1.10,2013-08-17 05:16:00,
2013-08-16 21:31:00,57.5,55.0,29.66,West,269,1.0,5.0,90,0.00,,,0.08,0,weatherlink.com 1.10,2013-08-17 05:31:00,
2013-08-16 21:46:00,57.3,55.0,29.66,West,269,0.0,4.0,90,0.00,,,0.08,0,weatherlink.com 1.10,2013-08-17 05:46:00,
2013-08-16 22:01:00,57.7,55.0,29.66,West,269,0.0,2.0,92,0.00,,,0.08,0,weatherlink.com 1.10,2013-08-17 06:01:00,
2013-08-16 22:16:00,58.7,56.0,29.66,West,269,0.0,1.0,90,0.00,,,0.00,0,weatherlink.com 1.10,2013-08-17 06:16:00,
2013-08-16 22:31:00,59.3,55.0,29.66,West,269,2.0,5.0,86,0.00,,,0.00,0,weatherlink.com 1.10,2013-08-17 06:31:00,
2013-08-16 22:46:00,58.2,55.0,29.66,West,269,0.0,4.0,89,0.00,,,0.00,0,weatherlink.com 1.10,2013-08-17 06:46:00,
2013-08-16 23:01:00,57.8,55.0,29.66,West,269,1.0,3.0,91,0.00,,,0.00,0,weatherlink.com 1.10,2013-08-17 07:01:00,
2013-08-16 23:16:00,58.7,56.0,29.66,West,269,0.0,2.0,89,0.00,,,0.00,0,weatherlink.com 1.10,2013-08-17 07:16:00,
2013-08-16 23:31:00,58.3,56.0,29.66,West,269,2.0,5.0,91,0.00,,,0.00,0,weatherlink.com 1.10,2013-08-17 07:31:00,
2013-08-16 23:46:00,58.1,55.0,29.65,West,269,1.0,4.0,90,0.00,,,0.00,0,weatherlink.com 1.10,2013-08-17 07:46:00,